NI0Z Weather Reports


time (UTC)temp
C
wind
direction
speed
KPH
gust
KPH
rain 1hr
cm
rain 24hr
cm
rain mn
cm
humidity
%
barometer
mb
20260505071150 10 250 4.8 8.0 0.48 0.48 0.48 84
20260505070647 10 243 3.2 4.8 0.30 0.43 0.43 84
20260505070143 10 244 3.2 9.7 0.13 0.41 0.41 83
20260505065639 10 311 1.6 3.2 0.00 0.38 0.38 83
20260505065136 10 267 1.6 3.2 0.18 0.38 0.38 83
20260505064633 10 323 0.0 1.6 0.18 0.38 0.38 83
20260505064131 10 324 0.0 4.8 0.00 0.36 0.36 84
20260505063628 11 308 0.0 1.6 0.00 0.36 0.36 88
20260505063124 11 327 0.0 0.0 0.00 0.36 0.36 88
20260505062621 12 314 0.0 0.0 0.00 0.36 0.36 90
20260505062118 12 328 0.0 0.0 0.13 0.36 0.36 89
20260505061615 12 309 0.0 0.0 0.13 0.36 0.36 88
20260505061114 12 319 0.0 0.0 0.18 0.33 0.33 89
20260505060611 12 319 0.0 0.0 0.30 0.33 0.33 88
20260505060107 12 330 0.0 0.0 0.30 0.30 0.30 87
20260505055602 12 323 0.0 0.0 0.30 0.28 0.28 86
20260505055059 13 322 0.0 0.0 0.61 0.25 0.25 84
20260505054557 13 307 0.0 1.6 0.79 0.20 0.20 80
20260505054055 15 302 0.0 1.6 0.71 0.13 0.13 74
20260505053551 16 321 3.2 11.3 0.30 0.05 0.05 67
20260505053048 17 316 1.6 4.8 0.00 0.00 0.00 60
20260505052545 17 293 3.2 8.0 0.00 0.00 0.00 60
20260505052043 17 287 3.2 12.9 0.00 0.00 0.00 58
20260505051539 18 321 3.2 8.0 0.00 0.00 0.00 55
20260505051038 18 321 1.6 11.3 0.00 0.00 0.00 52
20260505050535 20 256 8.0 11.3 0.00 0.00 0.00 47
20260505041503 20 354 3.2 3.2 0.00 0.00 0.00 72
20260505041001 20 333 3.2 4.8 0.00 0.00 0.00 72
20260505040458 20 339 4.8 8.0 0.00 0.00 0.00 72
20260505035954 21 338 1.6 4.8 0.00 0.00 0.00 71
20260505035450 21 348 0.0 3.2 0.00 0.00 0.00 71
20260505034948 21 348 1.6 3.2 0.00 0.00 0.00 71
20260505034444 21 334 0.0 0.0 0.00 0.00 0.00 71
20260505033941 21 334 1.6 1.6 0.00 0.00 0.00 71
20260505033438 21 340 0.0 0.0 0.00 0.00 0.00 70
20260505032936 21 330 0.0 0.0 0.00 0.00 0.00 69
20260505032433 21 1 0.0 1.6 0.00 0.00 0.00 69
20260505031929 21 330 0.0 0.0 0.00 0.00 0.00 68
20260505031427 21 337 0.0 0.0 0.00 0.00 0.00 68
20260505030923 21 331 0.0 0.0 0.00 0.00 0.00 67
20260505030419 21 338 1.6 1.6 0.00 0.00 0.00 66
20260505025915 21 336 0.0 0.0 0.00 0.00 0.00 66
20260505025412 22 332 0.0 0.0 0.00 0.00 0.00 66
20260505024911 21 332 0.0 0.0 0.00 0.00 0.00 66
20260505024408 22 327 0.0 0.0 0.00 0.00 0.00 66
20260505023905 21 350 0.0 0.0 0.00 0.00 0.00 65
20260505023402 21 333 0.0 0.0 0.00 0.00 0.00 66
20260505022859 21 329 0.0 0.0 0.00 0.00 0.00 67
20260505022356 21 327 0.0 0.0 0.00 0.00 0.00 67
20260505021854 21 327 0.0 0.0 0.00 0.00 0.00 66
20260505021350 21 329 0.0 0.0 0.00 0.00 0.00 66
20260505020846 21 329 0.0 0.0 0.00 0.00 0.00 65
20260505020341 21 329 0.0 0.0 0.00 0.00 0.00 64
20260505015839 21 329 0.0 0.0 0.00 0.00 0.00 64
20260505015336 21 329 0.0 0.0 0.00 0.00 0.00 65
20260505014833 21 329 0.0 0.0 0.00 0.00 0.00 65
20260505014330 21 328 0.0 0.0 0.00 0.00 0.00 64
20260505013826 21 328 0.0 0.0 0.00 0.00 0.00 64
20260505013324 21 329 0.0 0.0 0.00 0.00 0.00 63
20260505012822 22 328 0.0 0.0 0.00 0.00 0.00 62
20260505012320 22 328 0.0 0.0 0.00 0.00 0.00 61
20260505011815 22 329 0.0 0.0 0.00 0.00 0.00 60
20260505011312 22 325 0.0 0.0 0.00 0.00 0.00 59
20260505010808 22 320 0.0 0.0 0.00 0.00 0.00 59
20260505010304 23 320 0.0 0.0 0.00 0.00 0.00 58
20260505005801 23 320 0.0 0.0 0.00 0.00 0.00 57
20260505005258 23 320 0.0 0.0 0.00 0.00 0.00 57
20260505004755 23 320 0.0 0.0 0.00 0.00 0.00 57
20260505004251 24 320 0.0 0.0 0.00 0.00 0.00 55
20260505003749 24 320 0.0 0.0 0.00 0.00 0.00 54
20260505003246 25 320 0.0 0.0 0.00 0.00 0.00 53
20260505002742 25 320 0.0 0.0 0.00 0.00 0.00 53
20260505002240 25 320 0.0 0.0 0.00 0.00 0.00 52
20260505001737 25 320 0.0 0.0 0.00 0.00 0.00 52
20260505001235 25 320 0.0 0.0 0.00 0.00 0.00 52
20260505000731 25 320 0.0 0.0 0.00 0.00 0.00 52
20260505000229 25 320 0.0 0.0 0.00 0.00 0.00 52
20260504235726 25 320 0.0 0.0 0.00 0.00 0.00 52
20260504235221 25 320 0.0 0.0 0.00 0.00 0.00 51
20260504234719 25 320 0.0 0.0 0.00 0.00 0.00 50
20260504234216 25 323 0.0 0.0 0.00 0.00 0.00 51
20260504233712 25 324 0.0 0.0 0.00 0.00 0.00 50
20260504233208 25 324 0.0 0.0 0.00 0.00 0.00 50
20260504232706 25 320 0.0 0.0 0.00 0.00 0.00 50
20260504232203 25 337 0.0 0.0 0.00 0.00 0.00 49
20260504231659 26 75 0.0 1.6 0.00 0.00 0.00 47
20260504231155 26 326 0.0 0.0 0.00 0.00 0.00 48
20260504230652 26 6 0.0 1.6 0.00 0.00 0.00 47
20260504230151 26 290 0.0 0.0 0.00 0.00 0.00 45
20260504225649 26 290 0.0 4.8 0.00 0.00 0.00 47
20260504225144 26 330 0.0 1.6 0.00 0.00 0.00 45
20260504224642 26 312 0.0 3.2 0.00 0.00 0.00 48
20260504224138 26 325 0.0 0.0 0.00 0.00 0.00 48
20260504223636 26 304 1.6 3.2 0.00 0.00 0.00 48
20260504223131 26 332 0.0 0.0 0.00 0.00 0.00 47
20260504222628 26 224 0.0 0.0 0.00 0.00 0.00 47
20260504222125 26 188 3.2 8.0 0.00 0.00 0.00 45
20260504221623 26 315 0.0 1.6 0.00 0.00 0.00 46
20260504221120 26 331 0.0 0.0 0.00 0.00 0.00 48
20260504220616 26 313 0.0 0.0 0.00 0.00 0.00 51
20260504220114 26 334 0.0 3.2 0.00 0.00 0.00 48
20260504215609 26 265 1.6 3.2 0.00 0.00 0.00 49
20260504215107 25 330 0.0 0.0 0.00 0.00 0.00 48
20260504214603 25 328 0.0 1.6 0.00 0.00 0.00 49
20260504214059 25 357 0.0 3.2 0.00 0.00 0.00 47
20260504213556 26 79 0.0 1.6 0.00 0.00 0.00 48
20260504213053 26 334 0.0 0.0 0.00 0.00 0.00 50
20260504212549 26 339 0.0 0.0 0.00 0.00 0.00 48
20260504212046 26 314 0.0 0.0 0.00 0.00 0.00 52
20260504211543 25 254 0.0 1.6 0.00 0.00 0.00 49
20260504211040 25 356 0.0 1.6 0.00 0.00 0.00 48
20260504210537 25 322 0.0 0.0 0.00 0.00 0.00 50
20260504210034 25 345 0.0 0.0 0.00 0.00 0.00 50
20260504205532 25 312 0.0 1.6 0.00 0.00 0.00 49
20260504205029 26 359 1.6 4.8 0.00 0.00 0.00 48
20260504204527 26 319 0.0 0.0 0.00 0.00 0.00 48
20260504204026 26 320 0.0 0.0 0.00 0.00 0.00 48
20260504203524 26 0 4.8 4.8 0.00 0.00 0.00 48
20260504203021 27 12 0.0 1.6 0.00 0.00 0.00 47
20260504202516 27 326 0.0 4.8 0.00 0.00 0.00 49
20260504202013 27 329 0.0 4.8 0.00 0.00 0.00 48
20260504201510 27 336 0.0 4.8 0.00 0.00 0.00 45
20260504201008 27 320 0.0 3.2 0.00 0.00 0.00 50
20260504200504 27 317 0.0 1.6 0.00 0.00 0.00 45
20260504200001 26 3 1.6 3.2 0.00 0.00 0.00 47
20260504195457 27 20 3.2 9.7 0.00 0.00 0.00 46
20260504194954 27 9 0.0 0.0 0.00 0.00 0.00 48
20260504194450 27 325 0.0 1.6 0.00 0.00 0.00 48
20260504193946 26 350 0.0 1.6 0.00 0.00 0.00 48
20260504193443 27 25 3.2 11.3 0.00 0.00 0.00 48
20260504192942 27 255 3.2 4.8 0.00 0.00 0.00 49
20260504192439 27 359 1.6 8.0 0.00 0.00 0.00 49
20260504191938 27 1 0.0 0.0 0.00 0.00 0.00 48
20260504191435 27 345 3.2 3.2 0.00 0.00 0.00 47
20260504190930 26 331 0.0 0.0 0.00 0.00 0.00 47
20260504190426 26 328 0.0 9.7 0.00 0.00 0.00 49
20260504185923 26 356 3.2 4.8 0.00 0.00 0.00 47
20260504185421 26 334 1.6 3.2 0.00 0.00 0.00 47
20260504184916 26 331 0.0 3.2 0.00 0.00 0.00 47
20260504184412 26 20 1.6 3.2 0.00 0.00 0.00 46
20260504183908 25 330 0.0 1.6 0.00 0.00 0.00 47
20260504183406 25 323 0.0 3.2 0.00 0.00 0.00 53
20260504182903 25 344 1.6 1.6 0.00 0.00 0.00 48
20260504182400 25 237 0.0 4.8 0.00 0.00 0.00 49
20260504181856 25 330 1.6 4.8 0.00 0.00 0.00 48
20260504181354 25 188 1.6 4.8 0.00 0.00 0.00 51
20260504180853 25 326 0.0 3.2 0.00 0.00 0.00 47
20260504180351 25 326 0.0 3.2 0.00 0.00 0.00 49
20260504175849 25 322 0.0 1.6 0.00 0.00 0.00 48
20260504175345 25 317 3.2 4.8 0.00 0.00 0.00 49
20260504174844 25 324 0.0 1.6 0.00 0.00 0.00 53
20260504174341 24 335 0.0 3.2 0.00 0.00 0.00 52
20260504173838 23 333 0.0 4.8 0.00 0.00 0.00 51
20260504173334 24 331 1.6 4.8 0.00 0.00 0.00 51
20260504172831 23 326 0.0 4.8 0.00 0.00 0.00 51
20260504172328 23 331 0.0 0.0 0.00 0.00 0.00 52
20260504171824 23 338 0.0 0.0 0.00 0.00 0.00 53
20260504171321 23 317 1.6 3.2 0.00 0.00 0.00 51
20260504170818 23 312 0.0 0.0 0.00 0.00 0.00 54
20260504170315 23 25 4.8 4.8 0.00 0.00 0.00 50
20260504160233 22 339 3.2 4.8 0.00 0.00 0.00 52
20260504150659 20 333 3.2 3.2 0.00 0.00 0.00 56
20260504150156 20 58 1.6 3.2 0.00 0.00 0.00 57
20260504141124 18 335 0.0 0.0 0.00 0.00 0.00 62
20260504140621 18 329 0.0 0.0 0.00 0.00 0.00 61
20260504140117 18 329 0.0 0.0 0.00 0.00 0.00 61
20260504130545 17 17 4.8 9.7 0.00 0.00 0.00 59
20260504110433 16 330 0.0 0.0 0.00 0.00 0.00 61
20260504100349 17 329 0.0 0.0 0.00 0.00 0.00 55
20260504081743 18 340 1.6 3.2 0.00 0.00 0.00 54
20260504081239 17 4 0.0 4.8 0.00 0.00 0.00 55
20260504080736 17 352 0.0 3.2 0.00 0.00 0.00 55
20260504080232 17 341 3.2 3.2 0.00 0.00 0.00 56